Regional Weather Roundup
Issued by NWS

Home | Current Version | Previous Version | Text Only | Print | Product List | Glossary On
Versions: 1 2 3 4 5 6 7 8 9 10 11 12 13 14 15 16 17 18 19 20 21 22 23 24 25 26 27 28 29 30 31 32 33 34 35 36 37 38 39 40 41 42 43 44 45 46 47 48 49 50
000
ASHW40 PHFO 281610
RWRHI

WEATHER ROUNDUP FOR HAWAII
NATIONAL WEATHER SERVICE HONOLULU HI
600 AM HST WED JAN 28 2015

THIS IS AN AUTOMATED REPORT THAT HAS NOT BEEN QUALITY CONTROLLED.

NOTE..."FAIR" INDICATES FEW OR NO CLOUDS BELOW 12,000 FEET WITH NO
SIGNIFICANT WEATHER AND/OR OBSTRUCTIONS TO VISIBILITY.

* - THESE SITES REPORT LIMITED FIELDS

HIZ001>004-281700-
KAUAI-NIIHAU-

CITY           SKY/WX    TMP DP  RH WIND       PRES   REMARKS
LIHUE APT      CLEAR     64  59  83 W6        29.95R
PORT ALLEN*      N/A     63 N/A N/A N7          N/A
POIPU*           N/A     61 N/A N/A VRB3        N/A
PRINCEVILLE*     N/A     63 N/A N/A MISG        N/A
KOKOLE POINT*  NOT AVBL
MOLOAA DAIRY*  NOT AVBL
WAIMEA HTS*    NOT AVBL
PUU OPAE*      NOT AVBL
PUU LUA*       NOT AVBL
MAKAHA RIDGE*  NOT AVBL
$$

HIZ005>011-281700-
OAHU-

CITY           SKY/WX    TMP DP  RH WIND       PRES   REMARKS
HONOLULU       MOCLDY    70  65  84 N7        29.93R
KALAELOA       CLOUDY    69  63  81 CALM      29.94S
KANEOHE MCB    CLOUDY    70  67  90 CALM      29.93R
WHEELER FIELD  MOCLDY    62  59  91 W2        29.95R
BELLOWS*       NOT AVBL
KAHUKU*        NOT AVBL
WHEELER*       NOT AVBL
WAIANAE HARBOR NOT AVBL
DILLINGHAM*      N/A     63  59  88 MISG        N/A
KAHUKU TRN*      N/A     77  75  94 CALM        N/A
KAWAILOA*        N/A     64  61  88 E5          N/A
KII*             N/A     68  64  88 CALM        N/A
MAKUA RANGE*     N/A     79  73  83 SE5G10      N/A
OAHU FOREST NW NOT AVBL
SCHOFIELD BRK*   N/A     59  57  94 SW1         N/A
SCHOFIELD S*   NOT AVBL
WAIANAE VLY*   NOT AVBL
KUAOKALA*      NOT AVBL
HONOULIUULI*   NOT AVBL
MOKUOLOE IS*   NOT AVBL
PALEHUA*       NOT AVBL
WAIAWA PHB*    NOT AVBL
$$

HIZ012>013-281700-
MOLOKAI-

CITY           SKY/WX    TMP DP  RH WIND       PRES   REMARKS
MOLOKAI AIRPT  CLOUDY    67  61  81 CALM      29.94R
KALAUPAPA      NOT AVBL
MAKAPULAPAI*   NOT AVBL
MOLOKAI 1*     NOT AVBL
PUU ALII*      NOT AVBL
$$

HIZ016-281700-
KAHOOLAWE-

CITY           SKY/WX    TMP DP  RH WIND       PRES   REMARKS
KAHOOLAWE*     NOT AVBL
HAKIOAWA*      NOT AVBL
HONOKANAIA*      N/A     74  63  69 NE8G15    29.95R
KANELOA*         N/A     72  63  73 MISG      29.16R
KEALIALALO*    NOT AVBL
LUA MAKIKA*    NOT AVBL
$$

HIZ014>015-281700-
LANAI-

CITY           SKY/WX    TMP DP  RH WIND       PRES   REMARKS
LANAI CITY     CLOUDY    66  63  90 NE5       29.99R FOG
LANAI 1*       NOT AVBL
$$

HIZ017>028-281700-
MAUI-

CITY           SKY/WX    TMP DP  RH WIND       PRES   REMARKS
KAHULUI        PTCLDY    62  59  90 S3        29.94R
KAPALUA-W MAUI PTCLDY    66  59  77 E9        29.95
HANA AIRPORT   CLOUDY    68  61  77 CALM      29.97S
HANA*          NOT AVBL
HALEAKALA SUMM   N/A     46  14  27 SW7G20      N/A
MAALAEA BAY*   NOT AVBL
HALEAKALA*     NOT AVBL
KAUPO GAP*     NOT AVBL
KULA 1*          N/A     55  14  19 E5          N/A
$$

HIZ023>026-281700-
BIG ISLAND OF HAWAII COAST AND LOWER SLOPES-

CITY           SKY/WX    TMP DP  RH WIND       PRES   REMARKS
KAILUA KONA    CLOUDY    74  61  63 SE5       29.92R
HILO           CLOUDY    70  58  65 W10       29.95R
HONOKAA*       NOT AVBL
KAWAIHAE MWT*  NOT AVBL
KAWAIHAE*        N/A     75 N/A N/A SE3         N/A
SOUTH POINT*   NOT AVBL
UPOLU AIRPORT* NOT AVBL
KAMUELA*       NOT AVBL
HAKALAU*         N/A    N/A N/A N/A S6          N/A
KALOKO-HONOKO* NOT AVBL
PALI 2*          N/A     59  52  77 N6          N/A
KEALAKOMO*       N/A     73  59  60 NE3G14      N/A
KAUPULEHU*     NOT AVBL
KAPAPALA*        N/A     60  55  82 CALM        N/A
LOWER KAHUKU*  NOT AVBL
PUHE CS*       NOT AVBL
PUHO CS*       NOT AVBL
PTA KEAMUKU*     N/A     55  50  82 CALM        N/A
WAIKOLOA*      NOT AVBL
$$

HIZ027>028-281700-
BIG ISLAND OF HAWAII INTERIOR AND SUMMMITS-

CITY           SKY/WX    TMP DP  RH WIND       PRES   REMARKS
BRADSHAW FIELD CLOUDY    45  27  50 SE6       30.22S
MK VISITOR CEN NOT AVBL
MAUNA KEA*       N/A     32   1  27 NW14        N/A  WCI  22
MAUNA LOA*     NOT AVBL
MAUNA LOA 1*   NOT AVBL
PTA KIPUKA*      N/A     39  34  81 SE2         N/A
PTA RANGE 17*    N/A    N/A N/A N/A E8          N/A
PTA WEST*        N/A     48  46  93 SE10        N/A
NENE CABIN*    NOT AVBL
AHUMOA*        NOT AVBL
PTA PORTABLE*  NOT AVBL
PUU MALI*      NOT AVBL
$$

HIC003-281700-
NORTHWEST ISLANDS-

CITY           SKY/WX    TMP DP  RH WIND       PRES   REMARKS
MIDWAY ISLAND  LGT RAIN  57  46  67 NW13      30.24F
MIDWAY NOS*    NOT AVBL
FRENCH FRIGATE NOT AVBL
$$

PHZ110>124-180-281700-
BUOY REPORTS

STATION/POSITION TIME  TEMP    WIND        PRES    WAVE   SWELL
                       AIR SEA DIR/SP/G            HT/PER HT/DIR
                 (UTC) (F)     (DEG/KT/KT) (MB)    (FT/S) (FT/D)
BUOY 51001       NOT AVBL
BUOY 51101       1600   69 73   10/  8/  8 1014.3R   7/15   7/310
BUOY 51100       1500   71 74  140/ 12/ 16 1014.1F
BUOY 51003       1500   75 78   CALM  /  4 1013.3R   7/16   7
BUOY 51004       1451   75 78   90/ 12/ 19 1012.3R   7/19
BARBERS PT BUOY  NOT AVBL
WAIMEA BAY BUOY  1600      76                N/A     7/17   5/310
KAILUA BAY BUOY  1600      76                N/A     4/ 8   2/ 10
LANAI BUOY       1600      77                N/A     3/18   2/290
BARBERS PT 2     1600      77                N/A     4/17   3/300
PAUWELA MAUI     1600      76                N/A     7/17   5/320
HILO             1600      77                N/A     5/11   2/360
KANEOHE BAY BUOY 1600      75                N/A     4/10   2
HANALEI KAUAI    NOT AVBL
KAHULUI HARBOR   1600   68 76  190/  2/  2 1013.4R
HONOLULU HARBOR  1600   71 76  350/  2/  3 1013.7R
KILO NALU        NOT AVBL
HILO HARBOR      1600   70 76  170/  3/ 11 1013.8R
MOKUOLOE         1600      75              1013.3R
NAWILIWILI       NOT AVBL
WHOTS BUOY       NOT AVBL
BUOY 51028       NOT AVBL
$$

......................KEY........................................
  SKY/WX - SKY CONDITIONS/PRESENT WEATHER
  TMP    - TEMPERATURE IN FAHRENHEIT
  DWPT   - DEWPOINT IN FAHRENHEIT
  RH     - RELATIVE HUMIDITY IN PERCENT
  WIND   - DIRECTION AND SPEED /MPH FOR ISLANDS...KTS FOR BUOYS/
  PRES   - MEAN SEA LEVEL PRESSURE IN INCHES OF HG
  VSB    - VISIBILITY IN MILES
  HX     - HEAT INDEX
  WCI    - WIND CHILL INDEX
  VRB    - VARIABLE WIND DIRECTION
  N/A    - NOT AVAILABLE


USA.gov is the U.S. government's official web portal to all federal, state and local government web resources and services.